TimeEST,TemperatureF,Dew PointF,Humidity,Sea Level PressureIn,VisibilityMPH,Wind Direction,Wind SpeedMPH,Gust SpeedMPH,PrecipitationIn,Events,Conditions,WindDirDegrees,DateUTC
12:52 AM,28.0,14.0,56,30.29,10.0,Calm,Calm,-,N/A,,Clear,0,2013-02-18 05:52:00
1:52 AM,28.9,14.0,54,30.30,10.0,SW,3.5,-,N/A,,Clear,220,2013-02-18 06:52:00
2:52 AM,27.0,16.0,63,30.32,10.0,SSE,3.5,-,N/A,,Clear,150,2013-02-18 07:52:00
3:52 AM,27.0,16.0,63,30.32,10.0,SSE,3.5,-,N/A,,Clear,160,2013-02-18 08:52:00
4:52 AM,24.8,15.8,69,30.32,10.0,Calm,Calm,-,N/A,,Clear,0,2013-02-18 09:52:00
5:52 AM,21.9,15.1,75,30.35,10.0,Calm,Calm,-,N/A,,Clear,0,2013-02-18 10:52:00
6:52 AM,21.9,14.0,72,30.37,10.0,Calm,Calm,-,N/A,,Partly Cloudy,0,2013-02-18 11:52:00
7:52 AM,28.0,18.0,66,30.38,10.0,SSE,3.5,-,N/A,,Partly Cloudy,160,2013-02-18 12:52:00
8:52 AM,33.8,17.6,52,30.37,10.0,SE,5.8,-,N/A,,Partly Cloudy,140,2013-02-18 13:52:00
9:52 AM,39.9,19.0,43,30.40,10.0,SSW,5.8,-,N/A,,Partly Cloudy,200,2013-02-18 14:52:00
10:52 AM,45.0,18.0,34,30.39,10.0,South,6.9,-,N/A,,Partly Cloudy,170,2013-02-18 15:52:00
11:52 AM,48.0,19.9,33,30.38,10.0,South,8.1,-,N/A,,Partly Cloudy,180,2013-02-18 16:52:00
12:52 PM,50.0,21.9,33,30.34,10.0,SSW,6.9,-,N/A,,Scattered Clouds,210,2013-02-18 17:52:00
1:52 PM,51.1,24.1,35,30.32,10.0,SSW,9.2,-,N/A,,Mostly Cloudy,200,2013-02-18 18:52:00
2:52 PM,53.1,23.0,31,30.30,10.0,South,11.5,-,N/A,,Mostly Cloudy,190,2013-02-18 19:52:00
3:52 PM,54.0,23.0,30,30.27,10.0,South,10.4,16.1,N/A,,Mostly Cloudy,170,2013-02-18 20:52:00
4:52 PM,53.1,25.0,34,30.27,10.0,South,11.5,-,N/A,,Mostly Cloudy,190,2013-02-18 21:52:00
5:52 PM,51.1,25.0,36,30.28,10.0,South,9.2,-,N/A,,Mostly Cloudy,190,2013-02-18 22:52:00
6:52 PM,46.9,25.0,42,30.28,10.0,South,11.5,-,N/A,,Mostly Cloudy,170,2013-02-18 23:52:00
7:52 PM,46.4,24.8,43,30.26,10.0,SSE,9.2,-,N/A,,Partly Cloudy,150,2013-02-19 00:52:00
8:52 PM,45.0,25.0,46,30.26,10.0,SSE,11.5,-,N/A,,Clear,160,2013-02-19 01:52:00
9:52 PM,39.9,26.1,58,30.26,10.0,South,8.1,-,N/A,,Clear,180,2013-02-19 02:52:00
10:52 PM,41.0,25.0,53,30.24,10.0,SSE,10.4,-,N/A,,Clear,160,2013-02-19 03:52:00
11:52 PM,37.9,25.0,60,30.23,10.0,South,9.2,-,N/A,,Clear,180,2013-02-19 04:52:00